Year,Month,Day,Hour,Minute,Value (Times are PST for temperature in C)
2019,03,19,00,00,5.00
2019,03,19,00,01,5.00
2019,03,19,00,02,5.00
2019,03,19,00,03,4.90
2019,03,19,00,04,4.90
2019,03,19,00,05,4.90
2019,03,19,00,06,4.90
2019,03,19,00,07,4.90
2019,03,19,00,08,4.90
2019,03,19,00,09,4.90
2019,03,19,00,10,4.90
2019,03,19,00,11,4.90
2019,03,19,00,12,4.80
2019,03,19,00,13,4.80
2019,03,19,00,14,4.80
2019,03,19,00,15,4.80
2019,03,19,00,16,4.80
2019,03,19,00,17,4.80
2019,03,19,00,18,4.80
2019,03,19,00,19,4.70
2019,03,19,00,20,4.70
2019,03,19,00,21,4.70
2019,03,19,00,22,4.70
2019,03,19,00,23,4.70
2019,03,19,00,24,4.70
2019,03,19,00,25,4.70
2019,03,19,00,26,4.60
2019,03,19,00,27,4.60
2019,03,19,00,28,4.60
2019,03,19,00,29,4.60
2019,03,19,00,30,4.60
2019,03,19,00,31,4.60
2019,03,19,00,32,4.60
2019,03,19,00,33,4.60
2019,03,19,00,34,4.60
2019,03,19,00,35,4.60
2019,03,19,00,36,4.60
2019,03,19,00,37,4.60
2019,03,19,00,38,4.60
2019,03,19,00,39,4.60
2019,03,19,00,40,4.60
2019,03,19,00,41,4.60
2019,03,19,00,42,4.60
2019,03,19,00,43,4.60
2019,03,19,00,44,4.60
2019,03,19,00,45,4.60
2019,03,19,00,46,4.60
2019,03,19,00,47,4.60
2019,03,19,00,48,4.60
2019,03,19,00,49,4.50
2019,03,19,00,50,4.50
2019,03,19,00,51,4.40
2019,03,19,00,52,4.40
2019,03,19,00,53,4.30
2019,03,19,00,54,4.30
2019,03,19,00,55,4.30
2019,03,19,00,56,4.20
2019,03,19,00,57,4.20
2019,03,19,00,58,4.20
2019,03,19,00,59,4.10
2019,03,19,01,00,4.10
2019,03,19,01,01,4.10
2019,03,19,01,02,4.10
2019,03,19,01,03,4.10
2019,03,19,01,04,4.10
2019,03,19,01,05,4.00
2019,03,19,01,06,4.00
2019,03,19,01,07,4.00
2019,03,19,01,08,4.00
2019,03,19,01,09,4.00
2019,03,19,01,10,4.00
2019,03,19,01,11,4.00
2019,03,19,01,12,4.00
2019,03,19,01,13,4.00
2019,03,19,01,14,4.00
2019,03,19,01,15,4.00
2019,03,19,01,16,4.00
2019,03,19,01,17,4.00
2019,03,19,01,18,4.00
2019,03,19,01,19,4.00
2019,03,19,01,20,4.00
2019,03,19,01,21,4.00
2019,03,19,01,22,4.00
2019,03,19,01,23,4.00
2019,03,19,01,24,3.90
2019,03,19,01,25,3.90
2019,03,19,01,26,3.90
2019,03,19,01,27,3.80
2019,03,19,01,28,3.80
2019,03,19,01,29,3.80
2019,03,19,01,30,3.70
2019,03,19,01,31,3.70
2019,03,19,01,32,3.80
2019,03,19,01,33,3.80
2019,03,19,01,34,3.80
2019,03,19,01,35,3.90
2019,03,19,01,36,4.00
2019,03,19,01,37,4.00
2019,03,19,01,38,4.00
2019,03,19,01,39,4.00
2019,03,19,01,40,4.00
2019,03,19,01,41,4.00
2019,03,19,01,42,4.10
2019,03,19,01,43,4.10
2019,03,19,01,44,4.10
2019,03,19,01,45,4.10
2019,03,19,01,46,4.20
2019,03,19,01,47,4.20
2019,03,19,01,48,4.20
2019,03,19,01,49,4.20
2019,03,19,01,50,4.20
2019,03,19,01,51,4.20
2019,03,19,01,52,4.30
2019,03,19,01,53,4.30
2019,03,19,01,54,4.30
2019,03,19,01,55,4.20
2019,03,19,01,56,4.20
2019,03,19,01,57,4.10
2019,03,19,01,58,4.10
2019,03,19,01,59,4.00
2019,03,19,02,00,3.90
2019,03,19,02,01,3.90
2019,03,19,02,02,3.80
2019,03,19,02,03,3.80
2019,03,19,02,04,3.70
2019,03,19,02,05,3.70
2019,03,19,02,06,3.60
2019,03,19,02,07,3.60
2019,03,19,02,08,3.60
2019,03,19,02,09,3.50
2019,03,19,02,10,3.40
2019,03,19,02,11,3.40
2019,03,19,02,12,3.40
2019,03,19,02,13,3.40
2019,03,19,02,14,3.30
2019,03,19,02,15,3.30
2019,03,19,02,16,3.30
2019,03,19,02,17,3.40
2019,03,19,02,18,3.30
2019,03,19,02,19,3.30
2019,03,19,02,20,3.30
2019,03,19,02,21,3.30
2019,03,19,02,22,3.30
2019,03,19,02,23,3.30
2019,03,19,02,24,3.30
2019,03,19,02,25,3.30
2019,03,19,02,26,3.30
2019,03,19,02,27,3.30
2019,03,19,02,28,3.30
2019,03,19,02,29,3.30
2019,03,19,02,30,3.30
2019,03,19,02,31,3.30
2019,03,19,02,32,3.30
2019,03,19,02,33,3.40
2019,03,19,02,34,3.40
2019,03,19,02,35,3.40
2019,03,19,02,36,3.30
2019,03,19,02,37,3.30
2019,03,19,02,38,3.20
2019,03,19,02,39,3.20
2019,03,19,02,40,3.20
2019,03,19,02,41,3.10
2019,03,19,02,42,3.10
2019,03,19,02,43,3.10
2019,03,19,02,44,3.10
2019,03,19,02,45,3.00
2019,03,19,02,46,3.00
2019,03,19,02,47,3.00
2019,03,19,02,48,3.00
2019,03,19,02,49,2.90
2019,03,19,02,50,2.90
2019,03,19,02,51,2.90
2019,03,19,02,52,2.90
2019,03,19,02,53,2.90
2019,03,19,02,54,2.90
2019,03,19,02,55,2.90
2019,03,19,02,56,2.90
2019,03,19,02,57,2.90
2019,03,19,02,58,3.00
2019,03,19,02,59,3.00
2019,03,19,03,00,3.00
2019,03,19,03,01,3.00
2019,03,19,03,02,3.00
2019,03,19,03,03,2.90
2019,03,19,03,04,2.90
2019,03,19,03,05,2.90
2019,03,19,03,06,2.80
2019,03,19,03,07,2.80
2019,03,19,03,08,2.80
2019,03,19,03,09,2.80
2019,03,19,03,10,2.80
2019,03,19,03,11,2.90
2019,03,19,03,12,2.90
2019,03,19,03,13,2.90
2019,03,19,03,14,3.00
2019,03,19,03,15,3.00
2019,03,19,03,16,3.00
2019,03,19,03,17,3.10
2019,03,19,03,18,3.10
2019,03,19,03,19,3.00
2019,03,19,03,20,2.90
2019,03,19,03,21,2.90
2019,03,19,03,22,2.90
2019,03,19,03,23,2.90
2019,03,19,03,24,2.90
2019,03,19,03,25,2.90
2019,03,19,03,26,2.90
2019,03,19,03,27,2.90
2019,03,19,03,28,2.90
2019,03,19,03,29,2.80
2019,03,19,03,30,2.80
2019,03,19,03,31,2.70
2019,03,19,03,32,2.70
2019,03,19,03,33,2.70
2019,03,19,03,34,2.60
2019,03,19,03,35,2.60
2019,03,19,03,36,2.60
2019,03,19,03,37,2.70
2019,03,19,03,38,2.70
2019,03,19,03,39,2.70
2019,03,19,03,40,2.80
2019,03,19,03,41,2.80
2019,03,19,03,42,2.70
2019,03,19,03,43,2.70
2019,03,19,03,44,2.70
2019,03,19,03,45,2.60
2019,03,19,03,46,2.60
2019,03,19,03,47,2.60
2019,03,19,03,48,2.60
2019,03,19,03,49,2.60
2019,03,19,03,50,2.70
2019,03,19,03,51,2.70
2019,03,19,03,52,2.70
2019,03,19,03,53,2.70
2019,03,19,03,54,2.60
2019,03,19,03,55,2.60
2019,03,19,03,56,2.60
2019,03,19,03,57,2.50
2019,03,19,03,58,2.40
2019,03,19,03,59,2.40
2019,03,19,04,00,2.40
2019,03,19,04,01,2.30
2019,03,19,04,02,2.30
2019,03,19,04,03,2.20
2019,03,19,04,04,2.20
2019,03,19,04,05,2.20
2019,03,19,04,06,2.20
2019,03,19,04,07,2.20
2019,03,19,04,08,2.30
2019,03,19,04,09,2.30
2019,03,19,04,10,2.30
2019,03,19,04,11,2.30
2019,03,19,04,12,2.30
2019,03,19,04,13,2.20
2019,03,19,04,14,2.20
2019,03,19,04,15,2.10
2019,03,19,04,16,2.10
2019,03,19,04,17,2.00
2019,03,19,04,18,2.00
2019,03,19,04,19,1.90
2019,03,19,04,20,1.90
2019,03,19,04,21,1.80
2019,03,19,04,22,1.80
2019,03,19,04,23,1.80
2019,03,19,04,24,1.80
2019,03,19,04,25,1.90
2019,03,19,04,26,1.90
2019,03,19,04,27,1.90
2019,03,19,04,28,1.90
2019,03,19,04,29,1.90
2019,03,19,04,30,1.90
2019,03,19,04,31,1.90
2019,03,19,04,32,1.90
2019,03,19,04,33,1.80
2019,03,19,04,34,1.80
2019,03,19,04,35,1.80
2019,03,19,04,36,1.80
2019,03,19,04,37,1.80
2019,03,19,04,38,1.80
2019,03,19,04,39,1.80
2019,03,19,04,40,1.80
2019,03,19,04,41,1.80
2019,03,19,04,42,1.80
2019,03,19,04,43,1.80
2019,03,19,04,44,1.80
2019,03,19,04,45,1.80
2019,03,19,04,46,1.70
2019,03,19,04,47,1.70
2019,03,19,04,48,1.70
2019,03,19,04,49,1.70
2019,03,19,04,50,1.70
2019,03,19,04,51,1.70
2019,03,19,04,52,1.70
2019,03,19,04,53,1.70
2019,03,19,04,54,1.80
2019,03,19,04,55,1.80
2019,03,19,04,56,1.90
2019,03,19,04,57,1.90
2019,03,19,04,58,1.90
2019,03,19,04,59,1.90
2019,03,19,05,00,1.90
2019,03,19,05,01,1.80
2019,03,19,05,02,1.80
2019,03,19,05,03,1.80
2019,03,19,05,04,1.70
2019,03,19,05,05,1.70
2019,03,19,05,06,1.70
2019,03,19,05,07,1.70
2019,03,19,05,08,1.70
2019,03,19,05,09,1.60
2019,03,19,05,10,1.60
2019,03,19,05,11,1.60
2019,03,19,05,12,1.60
2019,03,19,05,13,1.60
2019,03,19,05,14,1.60
2019,03,19,05,15,1.60
2019,03,19,05,16,1.60
2019,03,19,05,17,1.50
2019,03,19,05,18,1.50
2019,03,19,05,19,1.50
2019,03,19,05,20,1.40
2019,03,19,05,21,1.40
2019,03,19,05,22,1.40
2019,03,19,05,23,1.40
2019,03,19,05,24,1.40
2019,03,19,05,25,1.40
2019,03,19,05,26,1.40
2019,03,19,05,27,1.40
2019,03,19,05,28,1.40
2019,03,19,05,29,1.40
2019,03,19,05,30,1.40
2019,03,19,05,31,1.30
2019,03,19,05,32,1.40
2019,03,19,05,33,1.30
2019,03,19,05,34,1.30
2019,03,19,05,35,1.40
2019,03,19,05,36,1.40
2019,03,19,05,37,1.30
2019,03,19,05,38,1.30
2019,03,19,05,39,1.30
2019,03,19,05,40,1.30
2019,03,19,05,41,1.30
2019,03,19,05,42,1.30
2019,03,19,05,43,1.30
2019,03,19,05,44,1.30
2019,03,19,05,45,1.30
2019,03,19,05,46,1.30
2019,03,19,05,47,1.20
2019,03,19,05,48,1.20
2019,03,19,05,49,1.20
2019,03,19,05,50,1.20
2019,03,19,05,51,1.20
2019,03,19,05,52,1.20
2019,03,19,05,53,1.20
2019,03,19,05,54,1.10
2019,03,19,05,55,1.10
2019,03,19,05,56,1.10
2019,03,19,05,57,1.10
2019,03,19,05,58,1.10
2019,03,19,05,59,1.10
2019,03,19,06,00,1.10
2019,03,19,06,01,1.10
2019,03,19,06,02,1.10
2019,03,19,06,03,1.10
2019,03,19,06,04,1.10
2019,03,19,06,05,1.10
2019,03,19,06,06,1.10
2019,03,19,06,07,1.10
2019,03,19,06,08,1.10
2019,03,19,06,09,1.10
2019,03,19,06,10,1.00
2019,03,19,06,11,1.00
2019,03,19,06,12,1.00
2019,03,19,06,13,1.00
2019,03,19,06,14,1.00
2019,03,19,06,15,1.00
2019,03,19,06,16,1.00
2019,03,19,06,17,1.00
2019,03,19,06,18,1.00
2019,03,19,06,19,1.00
2019,03,19,06,20,1.00
2019,03,19,06,21,0.90
2019,03,19,06,22,0.90
2019,03,19,06,23,1.00
2019,03,19,06,24,0.90
2019,03,19,06,25,0.90
2019,03,19,06,26,0.90
2019,03,19,06,27,0.90
2019,03,19,06,28,0.90
2019,03,19,06,29,0.90
2019,03,19,06,30,0.90
2019,03,19,06,31,0.90
2019,03,19,06,32,0.90
2019,03,19,06,33,0.90
2019,03,19,06,34,0.90
2019,03,19,06,35,0.90
2019,03,19,06,36,0.90
2019,03,19,06,37,0.90
2019,03,19,06,38,0.90
2019,03,19,06,39,0.90
2019,03,19,06,40,0.80
2019,03,19,06,41,0.80
2019,03,19,06,42,0.80
2019,03,19,06,43,0.80
2019,03,19,06,44,0.70
2019,03,19,06,45,0.70
2019,03,19,06,46,0.70
2019,03,19,06,47,0.70
2019,03,19,06,48,0.70
2019,03,19,06,49,0.70
2019,03,19,06,50,0.70
2019,03,19,06,51,0.60
2019,03,19,06,52,0.60
2019,03,19,06,53,0.60
2019,03,19,06,54,0.60
2019,03,19,06,55,0.60
2019,03,19,06,56,0.60
2019,03,19,06,57,0.60
2019,03,19,06,58,0.60
2019,03,19,06,59,0.60
2019,03,19,07,00,0.60
2019,03,19,07,01,0.60
2019,03,19,07,02,0.60
2019,03,19,07,03,0.60
2019,03,19,07,04,0.60
2019,03,19,07,05,0.60
2019,03,19,07,06,0.60
2019,03,19,07,07,0.60
2019,03,19,07,08,0.60
2019,03,19,07,09,0.60
2019,03,19,07,10,0.60
2019,03,19,07,11,0.60
2019,03,19,07,12,0.60
2019,03,19,07,13,0.60
2019,03,19,07,14,0.60
2019,03,19,07,15,0.60
2019,03,19,07,16,0.60
2019,03,19,07,17,0.60
2019,03,19,07,18,0.60
2019,03,19,07,19,0.60
2019,03,19,07,20,0.60
2019,03,19,07,21,0.60
2019,03,19,07,22,0.60
2019,03,19,07,23,0.60
2019,03,19,07,24,0.50
2019,03,19,07,25,0.50
2019,03,19,07,26,0.50
2019,03,19,07,27,0.50
2019,03,19,07,28,0.50
2019,03,19,07,29,0.40
2019,03,19,07,30,0.40
2019,03,19,07,31,0.40
2019,03,19,07,32,0.40
2019,03,19,07,33,0.50
2019,03,19,07,34,0.40
2019,03,19,07,35,0.40
2019,03,19,07,36,0.40
2019,03,19,07,37,0.40
2019,03,19,07,38,0.40
2019,03,19,07,39,0.40
2019,03,19,07,40,0.40
2019,03,19,07,41,0.40
2019,03,19,07,42,0.40
2019,03,19,07,43,0.40
2019,03,19,07,44,0.40
2019,03,19,07,45,0.50
2019,03,19,07,46,0.50
2019,03,19,07,47,0.60
2019,03,19,07,48,0.60
2019,03,19,07,49,0.60
2019,03,19,07,50,0.60
2019,03,19,07,51,0.60
2019,03,19,07,52,0.70
2019,03,19,07,53,0.70
2019,03,19,07,54,0.70
2019,03,19,07,55,0.70
2019,03,19,07,56,0.80
2019,03,19,07,57,0.80
2019,03,19,07,58,0.80
2019,03,19,07,59,0.90
2019,03,19,08,00,0.90
2019,03,19,08,01,0.90
2019,03,19,08,02,0.90
2019,03,19,08,03,0.90
2019,03,19,08,04,0.90
2019,03,19,08,05,0.90
2019,03,19,08,06,1.00
2019,03,19,08,07,1.00
2019,03,19,08,08,1.10
2019,03,19,08,09,1.10
2019,03,19,08,10,1.20
2019,03,19,08,11,1.30
2019,03,19,08,12,1.40
2019,03,19,08,13,1.50
2019,03,19,08,14,1.50
2019,03,19,08,15,1.60
2019,03,19,08,16,1.60
2019,03,19,08,17,1.60
2019,03,19,08,18,1.60
2019,03,19,08,19,1.60
2019,03,19,08,20,1.60
2019,03,19,08,21,1.60
2019,03,19,08,22,1.60
2019,03,19,08,23,1.70
2019,03,19,08,24,1.70
2019,03,19,08,25,1.70
2019,03,19,08,26,1.80
2019,03,19,08,27,1.90
2019,03,19,08,28,1.90
2019,03,19,08,29,2.00
2019,03,19,08,30,2.10
2019,03,19,08,31,2.10
2019,03,19,08,32,2.20
2019,03,19,08,33,2.20
2019,03,19,08,34,2.30
2019,03,19,08,35,2.40
2019,03,19,08,36,2.50
2019,03,19,08,37,2.60
2019,03,19,08,38,2.80
2019,03,19,08,39,2.90
2019,03,19,08,40,2.90
2019,03,19,08,41,3.00
2019,03,19,08,42,3.10
2019,03,19,08,43,3.10
2019,03,19,08,44,3.20
2019,03,19,08,45,3.40
2019,03,19,08,46,3.50
2019,03,19,08,47,3.60
2019,03,19,08,48,3.70
2019,03,19,08,49,3.80
2019,03,19,08,50,3.80
2019,03,19,08,51,3.80
2019,03,19,08,52,3.90
2019,03,19,08,53,4.00
2019,03,19,08,54,4.10
2019,03,19,08,55,4.20
2019,03,19,08,56,4.30
2019,03,19,08,57,4.30
2019,03,19,08,58,4.40
2019,03,19,08,59,4.40
2019,03,19,09,00,4.50
2019,03,19,09,01,4.60
2019,03,19,09,02,4.70
2019,03,19,09,03,4.80
2019,03,19,09,04,4.90
2019,03,19,09,05,4.90
2019,03,19,09,06,4.90
2019,03,19,09,07,4.90
2019,03,19,09,08,4.90
2019,03,19,09,09,4.90
2019,03,19,09,10,5.00
2019,03,19,09,11,5.00
2019,03,19,09,12,5.00
2019,03,19,09,13,5.10
2019,03,19,09,14,5.20
2019,03,19,09,15,5.30
2019,03,19,09,16,5.40
2019,03,19,09,17,5.60
2019,03,19,09,18,5.70
2019,03,19,09,19,5.90
2019,03,19,09,20,6.00
2019,03,19,09,21,6.10
2019,03,19,09,22,6.20
2019,03,19,09,23,6.30
2019,03,19,09,24,6.30
2019,03,19,09,25,6.40
2019,03,19,09,26,6.50
2019,03,19,09,27,6.50
2019,03,19,09,28,6.60
2019,03,19,09,29,6.70
2019,03,19,09,30,6.80
2019,03,19,09,31,6.90
2019,03,19,09,32,7.00
2019,03,19,09,33,7.00
2019,03,19,09,34,7.00
2019,03,19,09,35,7.10
2019,03,19,09,36,7.10
2019,03,19,09,37,7.10
2019,03,19,09,38,7.20
2019,03,19,09,39,7.30
2019,03,19,09,40,7.40
2019,03,19,09,41,7.50
2019,03,19,09,42,7.60
2019,03,19,09,43,7.70
2019,03,19,09,44,7.70
2019,03,19,09,45,7.80
2019,03,19,09,46,7.80
2019,03,19,09,47,7.90
2019,03,19,09,48,8.00
2019,03,19,09,49,8.10
2019,03,19,09,50,8.20
2019,03,19,09,51,8.20
2019,03,19,09,52,8.30
2019,03,19,09,53,8.40
2019,03,19,09,54,8.50
2019,03,19,09,55,8.60
2019,03,19,09,56,8.70
2019,03,19,09,57,8.70
2019,03,19,09,58,8.80
2019,03,19,09,59,8.90
2019,03,19,10,00,8.90
2019,03,19,10,01,9.00
2019,03,19,10,02,9.10
2019,03,19,10,03,9.20
2019,03,19,10,04,9.20
2019,03,19,10,05,9.30
2019,03,19,10,06,9.40
2019,03,19,10,07,9.40
2019,03,19,10,08,9.50
2019,03,19,10,09,9.50
2019,03,19,10,10,9.50
2019,03,19,10,11,9.60
2019,03,19,10,12,9.60
2019,03,19,10,13,9.70
2019,03,19,10,14,9.70
2019,03,19,10,15,9.70
2019,03,19,10,16,9.70
2019,03,19,10,17,9.80
2019,03,19,10,18,9.80
2019,03,19,10,19,9.90
2019,03,19,10,20,9.90
2019,03,19,10,21,9.90
2019,03,19,10,22,10.00
2019,03,19,10,23,10.00
2019,03,19,10,24,10.10
2019,03,19,10,25,10.10
2019,03,19,10,26,10.10
2019,03,19,10,27,10.10
2019,03,19,10,28,10.10
2019,03,19,10,29,10.10
2019,03,19,10,30,10.10
2019,03,19,10,31,10.10
2019,03,19,10,32,10.10
2019,03,19,10,33,10.20
2019,03,19,10,34,10.20
2019,03,19,10,35,10.20
2019,03,19,10,36,10.30
2019,03,19,10,37,10.40
2019,03,19,10,38,10.50
2019,03,19,10,39,10.50
2019,03,19,10,40,10.60
2019,03,19,10,41,10.70
2019,03,19,10,42,10.70
2019,03,19,10,43,10.80
2019,03,19,10,44,10.80
2019,03,19,10,45,10.80
2019,03,19,10,46,10.80
2019,03,19,10,47,10.90
2019,03,19,10,48,11.00
2019,03,19,10,49,11.00
2019,03,19,10,50,11.10
2019,03,19,10,51,11.10
2019,03,19,10,52,11.20
2019,03,19,10,53,11.20
2019,03,19,10,54,11.20
2019,03,19,10,55,11.20
2019,03,19,10,56,11.30
2019,03,19,10,57,11.30
2019,03,19,10,58,11.40
2019,03,19,10,59,11.40
2019,03,19,11,00,11.50
2019,03,19,11,01,11.60
2019,03,19,11,02,11.70
2019,03,19,11,03,11.80
2019,03,19,11,04,11.90
2019,03,19,11,05,12.00
2019,03,19,11,06,12.10
2019,03,19,11,07,12.10
2019,03,19,11,08,12.20
2019,03,19,11,09,12.20
2019,03,19,11,10,12.20
2019,03,19,11,11,12.20
2019,03,19,11,12,12.20
2019,03,19,11,13,12.30
2019,03,19,11,14,12.40
2019,03,19,11,15,12.50
2019,03,19,11,16,12.60
2019,03,19,11,17,12.70
2019,03,19,11,18,12.70
2019,03,19,11,19,12.80
2019,03,19,11,20,12.90
2019,03,19,11,21,12.90
2019,03,19,11,22,12.90
2019,03,19,11,23,12.90
2019,03,19,11,24,12.80
2019,03,19,11,25,12.90
2019,03,19,11,26,12.90
2019,03,19,11,27,13.00
2019,03,19,11,28,13.10
2019,03,19,11,29,13.10
2019,03,19,11,30,13.20
2019,03,19,11,31,13.30
2019,03,19,11,32,13.40
2019,03,19,11,33,13.40
2019,03,19,11,34,13.40
2019,03,19,11,35,13.40
2019,03,19,11,36,13.40
2019,03,19,11,37,13.40
2019,03,19,11,38,13.50
2019,03,19,11,39,13.50
2019,03,19,11,40,13.60
2019,03,19,11,41,13.70
2019,03,19,11,42,13.70
2019,03,19,11,43,13.70
2019,03,19,11,44,13.70
2019,03,19,11,45,13.80
2019,03,19,11,46,13.80
2019,03,19,11,47,13.70
2019,03,19,11,48,13.70
2019,03,19,11,49,13.70
2019,03,19,11,50,13.70
2019,03,19,11,51,13.70
2019,03,19,11,52,13.70
2019,03,19,11,53,13.70
2019,03,19,11,54,13.70
2019,03,19,11,55,13.70
2019,03,19,11,56,13.70
2019,03,19,11,57,13.70
2019,03,19,11,58,13.80
2019,03,19,11,59,13.80
2019,03,19,12,00,13.80
2019,03,19,12,01,13.80
2019,03,19,12,02,13.80
2019,03,19,12,03,13.80
2019,03,19,12,04,13.70
2019,03,19,12,05,13.70
2019,03,19,12,06,13.70
2019,03,19,12,07,13.70
2019,03,19,12,08,13.60
2019,03,19,12,09,13.60
2019,03,19,12,10,13.70
2019,03,19,12,11,13.70
2019,03,19,12,12,13.70
2019,03,19,12,13,13.80
2019,03,19,12,14,13.80
2019,03,19,12,15,13.80
2019,03,19,12,16,13.90
2019,03,19,12,17,13.90
2019,03,19,12,18,13.90
2019,03,19,12,19,13.90
2019,03,19,12,20,14.00
2019,03,19,12,21,14.00
2019,03,19,12,22,14.10
2019,03,19,12,23,14.10
2019,03,19,12,24,14.20
2019,03,19,12,25,14.30
2019,03,19,12,26,14.30
2019,03,19,12,27,14.40
2019,03,19,12,28,14.40
2019,03,19,12,29,14.50
2019,03,19,12,30,14.50
2019,03,19,12,31,14.60
2019,03,19,12,32,14.60
2019,03,19,12,33,14.60
2019,03,19,12,34,14.70
2019,03,19,12,35,14.70
2019,03,19,12,36,14.70
2019,03,19,12,37,14.80
2019,03,19,12,38,14.70
2019,03,19,12,39,14.70
2019,03,19,12,40,14.70
2019,03,19,12,41,14.70
2019,03,19,12,42,14.70
2019,03,19,12,43,14.70
2019,03,19,12,44,14.70
2019,03,19,12,45,14.60
2019,03,19,12,46,14.60
2019,03,19,12,47,14.60
2019,03,19,12,48,14.60
2019,03,19,12,49,14.60
2019,03,19,12,50,14.60
2019,03,19,12,51,14.60
2019,03,19,12,52,14.60
2019,03,19,12,53,14.60
2019,03,19,12,54,14.60
2019,03,19,12,55,14.70
2019,03,19,12,56,14.70
2019,03,19,12,57,14.80
2019,03,19,12,58,14.80
2019,03,19,12,59,14.90
2019,03,19,13,00,15.00
2019,03,19,13,01,15.00
2019,03,19,13,02,15.10
2019,03,19,13,03,15.10
2019,03,19,13,04,15.20
2019,03,19,13,05,15.20
2019,03,19,13,06,15.30
2019,03,19,13,07,15.30
2019,03,19,13,08,15.30
2019,03,19,13,09,15.30
2019,03,19,13,10,15.30
2019,03,19,13,11,15.30
2019,03,19,13,12,15.30
2019,03,19,13,13,15.30
2019,03,19,13,14,15.20
2019,03,19,13,15,15.20
2019,03,19,13,16,15.20
2019,03,19,13,17,15.20
2019,03,19,13,18,15.20
2019,03,19,13,19,15.20
2019,03,19,13,20,15.20
2019,03,19,13,21,15.30
2019,03,19,13,22,15.30
2019,03,19,13,23,15.30
2019,03,19,13,24,15.40
2019,03,19,13,25,15.40
2019,03,19,13,26,15.40
2019,03,19,13,27,15.40
2019,03,19,13,28,15.40
2019,03,19,13,29,15.40
2019,03,19,13,30,15.40
2019,03,19,13,31,15.40
2019,03,19,13,32,15.50
2019,03,19,13,33,15.60
2019,03,19,13,34,15.60
2019,03,19,13,35,15.70
2019,03,19,13,36,15.70
2019,03,19,13,37,15.80
2019,03,19,13,38,15.80
2019,03,19,13,39,15.80
2019,03,19,13,40,15.80
2019,03,19,13,41,15.90
2019,03,19,13,42,15.90
2019,03,19,13,43,15.90
2019,03,19,13,44,15.90
2019,03,19,13,45,16.00
2019,03,19,13,46,16.10
2019,03,19,13,47,16.10
2019,03,19,13,48,16.00
2019,03,19,13,49,16.00
2019,03,19,13,50,15.90
2019,03,19,13,51,15.90
2019,03,19,13,52,15.90
2019,03,19,13,53,15.90
2019,03,19,13,54,15.90
2019,03,19,13,55,15.90
2019,03,19,13,56,15.80
2019,03,19,13,57,15.80
2019,03,19,13,58,15.70
2019,03,19,13,59,15.60
2019,03,19,14,00,15.50
2019,03,19,14,01,15.50
2019,03,19,14,02,15.40
2019,03,19,14,03,15.40
2019,03,19,14,04,15.40
2019,03,19,14,05,15.50
2019,03,19,14,06,15.50
2019,03,19,14,07,15.50
2019,03,19,14,08,15.50
2019,03,19,14,09,15.50
2019,03,19,14,10,15.50
2019,03,19,14,11,15.50
2019,03,19,14,12,15.50
2019,03,19,14,13,15.50
2019,03,19,14,14,15.50
2019,03,19,14,15,15.50
2019,03,19,14,16,15.50
2019,03,19,14,17,15.50
2019,03,19,14,18,15.50
2019,03,19,14,19,15.60
2019,03,19,14,20,15.60
2019,03,19,14,21,15.60
2019,03,19,14,22,15.60
2019,03,19,14,23,15.70
2019,03,19,14,24,15.70
2019,03,19,14,25,15.70
2019,03,19,14,26,15.70
2019,03,19,14,27,15.70
2019,03,19,14,28,15.80
2019,03,19,14,29,15.80
2019,03,19,14,30,15.80
2019,03,19,14,31,15.80
2019,03,19,14,32,15.80
2019,03,19,14,33,15.70
2019,03,19,14,34,15.70
2019,03,19,14,35,15.70
2019,03,19,14,36,15.70
2019,03,19,14,37,15.70
2019,03,19,14,38,15.70
2019,03,19,14,39,15.60
2019,03,19,14,40,15.60
2019,03,19,14,41,15.50
2019,03,19,14,42,15.40
2019,03,19,14,43,15.30
2019,03,19,14,44,15.30
2019,03,19,14,45,15.30
2019,03,19,14,46,15.20
2019,03,19,14,47,15.20
2019,03,19,14,48,15.10
2019,03,19,14,49,15.10
2019,03,19,14,50,15.10
2019,03,19,14,51,15.10
2019,03,19,14,52,15.20
2019,03,19,14,53,15.20
2019,03,19,14,54,15.30
2019,03,19,14,55,15.30
2019,03,19,14,56,15.30
2019,03,19,14,57,15.30
2019,03,19,14,58,15.30
2019,03,19,14,59,15.30
2019,03,19,15,00,15.30
2019,03,19,15,01,15.30
2019,03,19,15,02,15.30
2019,03,19,15,03,15.20
2019,03,19,15,04,15.20
2019,03,19,15,05,15.20
2019,03,19,15,06,15.20
2019,03,19,15,07,15.20
2019,03,19,15,08,15.20
2019,03,19,15,09,15.20
2019,03,19,15,10,15.20
2019,03,19,15,11,15.10
2019,03,19,15,12,15.10
2019,03,19,15,13,15.10
2019,03,19,15,14,15.10
2019,03,19,15,15,15.10
2019,03,19,15,16,15.20
2019,03,19,15,17,15.20
2019,03,19,15,18,15.20
2019,03,19,15,19,15.20
2019,03,19,15,20,15.10
2019,03,19,15,21,15.10
2019,03,19,15,22,15.10
2019,03,19,15,23,15.10
2019,03,19,15,24,15.00
2019,03,19,15,25,15.00
2019,03,19,15,26,15.00
2019,03,19,15,27,15.00
2019,03,19,15,28,15.00
2019,03,19,15,29,14.90
2019,03,19,15,30,15.00
2019,03,19,15,31,15.00
2019,03,19,15,32,15.00
2019,03,19,15,33,15.10
2019,03,19,15,34,15.10
2019,03,19,15,35,15.10
2019,03,19,15,36,15.20
2019,03,19,15,37,15.20
2019,03,19,15,38,15.30
2019,03,19,15,39,15.40
2019,03,19,15,40,15.50
2019,03,19,15,41,15.60
2019,03,19,15,42,15.70
2019,03,19,15,43,15.80
2019,03,19,15,44,15.80
2019,03,19,15,45,15.90
2019,03,19,15,46,15.90
2019,03,19,15,47,15.90
2019,03,19,15,48,16.00
2019,03,19,15,49,16.00
2019,03,19,15,50,16.00
2019,03,19,15,51,16.00
2019,03,19,15,52,15.90
2019,03,19,15,53,15.80
2019,03,19,15,54,15.80
2019,03,19,15,55,15.70
2019,03,19,15,56,15.70
2019,03,19,15,57,15.60
2019,03,19,15,58,15.60
2019,03,19,15,59,15.60
2019,03,19,16,00,15.60
2019,03,19,16,01,15.60
2019,03,19,16,02,15.50
2019,03,19,16,03,15.50
2019,03,19,16,04,15.50
2019,03,19,16,05,15.50
2019,03,19,16,06,15.60
2019,03,19,16,07,15.60
2019,03,19,16,08,15.70
2019,03,19,16,09,15.80
2019,03,19,16,10,15.80
2019,03,19,16,11,15.80
2019,03,19,16,12,15.90
2019,03,19,16,13,15.90
2019,03,19,16,14,16.00
2019,03,19,16,15,16.00
2019,03,19,16,16,16.10
2019,03,19,16,17,16.20
2019,03,19,16,18,16.20
2019,03,19,16,19,16.30
2019,03,19,16,20,16.30
2019,03,19,16,21,16.40
2019,03,19,16,22,16.50
2019,03,19,16,23,16.60
2019,03,19,16,24,16.70
2019,03,19,16,25,16.80
2019,03,19,16,26,16.80
2019,03,19,16,27,16.90
2019,03,19,16,28,16.90
2019,03,19,16,29,17.00
2019,03,19,16,30,17.10
2019,03,19,16,31,17.10
2019,03,19,16,32,17.10
2019,03,19,16,33,17.10
2019,03,19,16,34,17.10
2019,03,19,16,35,17.20
2019,03,19,16,36,17.20
2019,03,19,16,37,17.20
2019,03,19,16,38,17.20
2019,03,19,16,39,17.30
2019,03,19,16,40,17.30
2019,03,19,16,41,17.40
2019,03,19,16,42,17.50
2019,03,19,16,43,17.60
2019,03,19,16,44,17.70
2019,03,19,16,45,17.80
2019,03,19,16,46,17.90
2019,03,19,16,47,17.90
2019,03,19,16,48,17.90
2019,03,19,16,49,17.90
2019,03,19,16,50,17.90
2019,03,19,16,51,17.90
2019,03,19,16,52,17.80
2019,03,19,16,53,17.80
2019,03,19,16,54,17.80
2019,03,19,16,55,17.80
2019,03,19,16,56,17.70
2019,03,19,16,57,17.70
2019,03,19,16,58,17.70
2019,03,19,16,59,17.70
2019,03,19,17,00,17.70
2019,03,19,17,01,17.70
2019,03,19,17,02,17.70
2019,03,19,17,03,17.70
2019,03,19,17,04,17.70
2019,03,19,17,05,17.70
2019,03,19,17,06,17.70
2019,03,19,17,07,17.70
2019,03,19,17,08,17.70
2019,03,19,17,09,17.70
2019,03,19,17,10,17.70
2019,03,19,17,11,17.70
2019,03,19,17,12,17.70
2019,03,19,17,13,17.70
2019,03,19,17,14,17.70
2019,03,19,17,15,17.70
2019,03,19,17,16,17.70
2019,03,19,17,17,17.70
2019,03,19,17,18,17.70
2019,03,19,17,19,17.70
2019,03,19,17,20,17.60
2019,03,19,17,21,17.60
2019,03,19,17,22,17.60
2019,03,19,17,23,17.50
2019,03,19,17,24,17.50
2019,03,19,17,25,17.50
2019,03,19,17,26,17.50
2019,03,19,17,27,17.50
2019,03,19,17,28,17.50
2019,03,19,17,29,17.50
2019,03,19,17,30,17.50
2019,03,19,17,31,17.50
2019,03,19,17,32,17.50
2019,03,19,17,33,17.60
2019,03,19,17,34,17.60
2019,03,19,17,35,17.60
2019,03,19,17,36,17.60
2019,03,19,17,37,17.60
2019,03,19,17,38,17.60
2019,03,19,17,39,17.70
2019,03,19,17,40,17.70
2019,03,19,17,41,17.70
2019,03,19,17,42,17.70
2019,03,19,17,43,17.70
2019,03,19,17,44,17.70
2019,03,19,17,45,17.70
2019,03,19,17,46,17.60